Adrian, MI

8:30 AM EDT on August 26, 2016 (GMT -0400)
Lenawee County

Weather History for KADG - December, 2012

Change the Weather History Date:

Friday, December 14, 2012

  Actual Average Record
Temperature  
Mean Temperature 36 °F -  
Max Temperature 45 °F 36 °F 66 °F (1975)
Min Temperature 27 °F 22 °F 0 °F (1963)
Degree Days  
Heating Degree Days 29    
Moisture  
Dew Point 27 °F    
Average Humidity 75    
Maximum Humidity 88    
Minimum Humidity 56    
Precipitation  
Precipitation 0.00 in - - ()
Sea Level Pressure  
Sea Level Pressure 30.24 in    
Wind  
Wind Speed 3 mph (SW)    
Max Wind Speed 6 mph    
Max Gust Speed -    
Visibility 10 miles    
Events      
Averages and records for this station are not official NWS values.
T = Trace of Precipitation, MM = Missing Value Source: NWS Daily Summary

Daily Weather History Graph

Daily Weather History Graph

Search for Another Location

Airport or City:

Trip Planner

Search our weather history database for the weather conditions in past years. The results will help you decide how hot, cold, wet, or windy it might be!

Date:

Astronomy

Dec. 14, 2012 Rise Set
Actual Time 7:56 AM EST 5:05 PM EST
Civil Twilight 7:24 AM EST 5:37 PM EST
Nautical Twilight 6:49 AM EST 6:12 PM EST
Astronomical Twilight 6:15 AM EST 6:46 PM EST
Moon 8:59 AM EST (12/14) 6:58 PM EST (12/14)
Length of Visible Light 10h 12m
Length of Day
9h 09m
Waxing Crescent, 3% of the Moon is Illuminated
Dec 14
Waxing Crescent
Dec 20
First Quarter
Dec 28
Full
Jan 4
Last Quarter
Jan 11
New

Hourly Weather History & Observations

Time (EST) Temp. Windchill Dew Point Humidity Pressure Visibility Wind Dir Wind Speed Gust Speed Precip Events Conditions
1:53 AM 32.0 °F 27.5 °F 26.1 °F 79% 30.22 in 10.0 mi WSW 4.6 mph - N/A   Clear
2:53 AM 30.0 °F 26.5 °F 25.0 °F 82% 30.24 in 10.0 mi WSW 3.5 mph - N/A   Clear
3:53 AM 28.9 °F 25.2 °F 25.0 °F 85% 30.24 in 10.0 mi WSW 3.5 mph - N/A   Clear
4:53 AM 28.9 °F 23.9 °F 24.1 °F 82% 30.25 in 10.0 mi WSW 4.6 mph - N/A   Clear
5:53 AM 28.9 °F 23.9 °F 24.1 °F 82% 30.25 in 10.0 mi WSW 4.6 mph - N/A   Clear
7:53 AM 27.0 °F - 23.0 °F 85% 30.26 in 9.0 mi Calm Calm - N/A   Clear
8:53 AM 28.0 °F 22.8 °F 24.1 °F 85% 30.26 in 8.0 mi WSW 4.6 mph - N/A   Clear
9:53 AM 32.0 °F 27.5 °F 26.1 °F 79% 30.27 in 10.0 mi WSW 4.6 mph - N/A   Clear
10:53 AM 35.1 °F 32.2 °F 27.0 °F 72% 30.29 in 10.0 mi WSW 3.5 mph - N/A   Clear
11:53 AM 39.9 °F 37.8 °F 28.0 °F 63% 30.27 in 10.0 mi SW 3.5 mph - N/A   Clear
12:53 PM 43.0 °F 41.3 °F 30.0 °F 60% 30.25 in 10.0 mi South 3.5 mph - N/A   Clear
1:53 PM 45.0 °F 42.6 °F 30.0 °F 56% 30.23 in 10.0 mi South 4.6 mph - N/A   Clear
2:53 PM 45.0 °F 41.8 °F 30.0 °F 56% 30.21 in 10.0 mi South 5.8 mph - N/A   Clear
3:53 PM 45.0 °F 42.6 °F 30.0 °F 56% 30.22 in 10.0 mi SSW 4.6 mph - N/A   Clear
4:53 PM 42.1 °F 40.2 °F 30.0 °F 62% 30.21 in 10.0 mi SE 3.5 mph - N/A   Clear
5:53 PM 37.9 °F - 28.9 °F 70% 30.23 in 10.0 mi Calm Calm - N/A   Clear
6:53 PM 35.1 °F - 28.9 °F 78% 30.24 in 10.0 mi Calm Calm - N/A   Clear
7:53 PM 32.0 °F - 28.0 °F 85% 30.23 in 10.0 mi Calm Calm - N/A   Clear
8:53 PM 34.0 °F - 28.9 °F 82% 30.24 in 9.0 mi Calm Calm - N/A   Clear
9:53 PM 30.9 °F 27.5 °F 27.0 °F 85% 30.22 in 9.0 mi ENE 3.5 mph - N/A   Clear
10:53 PM 32.0 °F - 28.9 °F 88% 30.21 in 8.0 mi Calm Calm - N/A   Clear
11:53 PM 33.1 °F 30.0 °F 28.9 °F 85% 30.19 in 8.0 mi East 3.5 mph - N/A   Clear